K5NCO Weather Reports


time (UTC)temp
C
wind
direction
speed
KPH
gust
KPH
rain 1hr
cm
rain 24hr
cm
rain mn
cm
humidity
%
barometer
mb
20260902232932 35 325 0.0 1.6 0.00 0.00 0.00 47 1012.9
20260902232427 35 312 1.6 3.2 0.00 0.00 0.00 47 1013.0
20260902231921 35 0 0.0 0.0 0.00 0.00 0.00 47 1012.7
20260902231416 34 8 0.0 1.6 0.00 0.00 0.00 47 1012.9
20260902230910 34 10 3.2 3.2 0.00 0.00 0.00 47 1012.8
20260902230410 35 13 0.0 0.0 0.00 0.00 0.00 47 1012.6
20260902225904 34 13 0.0 1.6 0.00 0.00 0.00 47 1012.8
20260902225359 35 13 3.2 11.3 0.00 0.00 0.00 45 1012.9
20260902224858 36 18 6.4 11.3 0.00 0.00 0.00 42 1012.6
20260902224358 36 81 0.0 0.0 0.00 0.00 0.00 40 1012.5
20260902223855 37 264 0.0 0.0 0.00 0.00 0.00 39 1012.5
20260902223349 36 340 0.0 0.0 0.00 0.00 0.00 40 1012.5
20260902222844 36 305 0.0 0.0 0.00 0.00 0.00 40 1012.6
20260902222342 36 202 0.0 0.0 0.00 0.00 0.00 40 1012.7
20260902221837 36 196 0.0 0.0 0.00 0.00 0.00 40 1012.5
20260902221336 36 185 4.8 6.4 0.00 0.00 0.00 41 1012.7
20260902220832 36 179 0.0 0.0 0.00 0.00 0.00 41 1012.4
20260902220331 36 169 0.0 0.0 0.00 0.00 0.00 41 1012.6
20260902215826 36 130 4.8 6.4 0.00 0.00 0.00 41 1012.6
20260902215321 36 142 4.8 9.7 0.00 0.00 0.00 41 1012.7
20260902214817 36 164 9.7 11.3 0.00 0.00 0.00 41 1012.8
20260902214316 36 108 6.4 11.3 0.00 0.00 0.00 41 1012.9
20260902213811 36 141 1.6 4.8 0.00 0.00 0.00 41 1012.9
20260902213307 36 221 0.0 1.6 0.00 0.00 0.00 40 1012.9
20260902212805 36 171 3.2 3.2 0.00 0.00 0.00 40 1013.0
20260902212305 36 140 0.0 0.0 0.00 0.00 0.00 40 1012.9
20260902211758 36 14 0.0 0.0 0.00 0.00 0.00 40 1012.9
20260902211254 36 323 0.0 0.0 0.00 0.00 0.00 41 1013.1
20260902210754 36 315 3.2 3.2 0.00 0.00 0.00 40 1013.0
20260902210249 36 316 1.6 3.2 0.00 0.00 0.00 39 1013.0
20260902205747 37 218 0.0 1.6 0.00 0.00 0.00 39 1013.4
20260902205242 37 236 3.2 6.4 0.00 0.00 0.00 40 1013.4
20260902204737 37 176 3.2 3.2 0.00 0.00 0.00 40 1013.4
20260902204232 36 318 1.6 6.4 0.00 0.00 0.00 40 1013.2
20260902203727 37 252 8.0 11.3 0.00 0.00 0.00 40 1013.4
20260902203222 37 120 4.8 6.4 0.00 0.00 0.00 40 1013.6
20260902202716 37 249 6.4 11.3 0.00 0.00 0.00 39 1013.8
20260902202213 37 203 3.2 9.7 0.00 0.00 0.00 39 1013.8
20260902201709 37 260 3.2 4.8 0.00 0.00 0.00 39 1013.7
20260902201208 37 338 9.7 12.9 0.00 0.00 0.00 39 1013.9
20260902200703 37 30 0.0 0.0 0.00 0.00 0.00 40 1014.0
20260902200159 36 71 4.8 6.4 0.00 0.00 0.00 41 1014.0
20260902195649 36 333 9.7 12.9 0.00 0.00 0.00 41 1014.1
20260902195148 36 329 6.4 6.4 0.00 0.00 0.00 42 1014.2
20260902194647 35 342 3.2 3.2 0.00 0.00 0.00 43 1014.4
20260902194142 36 302 3.2 3.2 0.00 0.00 0.00 43 1014.3
20260902193638 36 331 6.4 9.7 0.00 0.00 0.00 42 1014.5
20260902193133 36 322 0.0 0.0 0.00 0.00 0.00 42 1014.4
20260902192631 36 220 0.0 1.6 0.00 0.00 0.00 42 1014.5
20260902192131 36 3 6.4 9.7 0.00 0.00 0.00 41 1014.7
20260902191625 36 312 3.2 4.8 0.00 0.00 0.00 42 1014.8
20260902191120 36 255 0.0 0.0 0.00 0.00 0.00 42 1015.0
20260902190616 35 226 3.2 3.2 0.00 0.00 0.00 43 1014.9
20260902190110 36 231 8.0 9.7 0.00 0.00 0.00 42 1015.1
20260902185606 36 139 4.8 4.8 0.00 0.00 0.00 43 1015.0
20260902185102 36 228 4.8 4.8 0.00 0.00 0.00 42 1015.4
20260902184557 36 177 8.0 9.7 0.00 0.00 0.00 43 1015.3
20260902184052 36 173 1.6 3.2 0.00 0.00 0.00 41 1015.4
20260902183548 36 212 6.4 6.4 0.00 0.00 0.00 40 1015.5
20260902183045 35 291 6.4 9.7 0.00 0.00 0.00 43 1015.6
20260902182540 36 245 4.8 6.4 0.00 0.00 0.00 43 1015.8
20260902182037 35 109 0.0 0.0 0.00 0.00 0.00 44 1015.8
20260902181533 35 99 0.0 0.0 0.00 0.00 0.00 44 1015.9
20260902181026 35 264 6.4 9.7 0.00 0.00 0.00 45 1016.2
20260902180520 35 246 8.0 9.7 0.00 0.00 0.00 44 1016.0
20260902180016 35 147 0.0 3.2 0.00 0.00 0.00 44 1016.1
20260902175510 35 124 0.0 1.6 0.00 0.00 0.00 46 1016.4
20260902175007 35 175 9.7 11.3 0.00 0.00 0.00 44 1016.5
20260902174503 34 330 3.2 3.2 0.00 0.00 0.00 46 1016.5
20260902173958 34 140 6.4 6.4 0.00 0.00 0.00 46 1016.5
20260902173458 35 168 9.7 9.7 0.00 0.00 0.00 46 1016.6
20260902172953 35 222 1.6 3.2 0.00 0.00 0.00 45 1016.8
20260902172452 35 217 6.4 9.7 0.00 0.00 0.00 46 1016.7
20260902171948 35 221 9.7 11.3 0.00 0.00 0.00 45 1016.9
20260902171443 35 241 3.2 3.2 0.00 0.00 0.00 48 1017.0
20260902170939 34 187 11.3 12.9 0.00 0.00 0.00 48 1017.0
20260902170434 34 213 8.0 9.7 0.00 0.00 0.00 48 1017.0
20260902165930 33 272 8.0 9.7 0.00 0.00 0.00 48 1017.1
20260902165428 33 205 4.8 6.4 0.00 0.00 0.00 48 1017.2
20260902164923 33 261 3.2 6.4 0.00 0.00 0.00 48 1017.2
20260902164418 33 179 3.2 4.8 0.00 0.00 0.00 50 1017.4
20260902163917 33 250 6.4 6.4 0.00 0.00 0.00 49 1017.4
20260902163413 33 217 9.7 12.9 0.00 0.00 0.00 49 1017.4
20260902162910 33 173 8.0 11.3 0.00 0.00 0.00 49 1017.6
20260902162406 33 176 6.4 6.4 0.00 0.00 0.00 49 1017.5
20260902161900 33 210 3.2 3.2 0.00 0.00 0.00 49 1017.3
20260902161355 33 220 3.2 4.8 0.00 0.00 0.00 49 1017.6
20260902160851 33 262 3.2 3.2 0.00 0.00 0.00 48 1017.3
20260902160347 33 238 4.8 6.4 0.00 0.00 0.00 50 1017.4
20260902155844 32 179 8.0 9.7 0.00 0.00 0.00 51 1017.3
20260902155343 32 256 6.4 6.4 0.00 0.00 0.00 52 1017.3
20260902154839 32 242 8.0 9.7 0.00 0.00 0.00 52 1017.5
20260902154335 32 265 9.7 11.3 0.00 0.00 0.00 53 1017.5
20260902153833 32 262 4.8 6.4 0.00 0.00 0.00 55 1017.5
20260902153332 31 236 6.4 9.7 0.00 0.00 0.00 56 1017.5
20260902152829 32 252 6.4 6.4 0.00 0.00 0.00 58 1017.6
20260902152325 32 233 4.8 6.4 0.00 0.00 0.00 55 1017.6
20260902151820 31 251 1.6 3.2 0.00 0.00 0.00 58 1017.6
20260902151315 30 262 4.8 9.7 0.00 0.00 0.00 60 1017.6
20260902150809 30 277 9.7 12.9 0.00 0.00 0.00 60 1017.5
20260902150306 30 235 8.0 9.7 0.00 0.00 0.00 62 1017.5
20260902145805 30 227 6.4 9.7 0.00 0.00 0.00 63 1017.4
20260902145301 30 252 4.8 9.7 0.00 0.00 0.00 62 1017.6
20260902144756 30 199 3.2 3.2 0.00 0.00 0.00 63 1017.5
20260902144252 30 247 6.4 9.7 0.00 0.00 0.00 64 1017.6
20260902143746 30 234 8.0 11.3 0.00 0.00 0.00 64 1017.4
20260902143241 30 262 4.8 6.4 0.00 0.00 0.00 64 1017.4
20260902142737 29 253 6.4 12.9 0.00 0.00 0.00 65 1017.5
20260902142232 30 254 8.0 12.9 0.00 0.00 0.00 64 1017.5
20260902141727 29 227 6.4 6.4 0.00 0.00 0.00 66 1017.6
20260902141223 29 205 1.6 3.2 0.00 0.00 0.00 67 1017.5
20260902140718 28 232 1.6 1.6 0.00 0.00 0.00 68 1017.5
20260902140213 28 236 0.0 0.0 0.00 0.00 0.00 69 1017.5
20260902135712 28 238 3.2 3.2 0.00 0.00 0.00 69 1017.3
20260902135208 28 121 6.4 6.4 0.00 0.00 0.00 69 1017.3
20260902134707 28 225 3.2 4.8 0.00 0.00 0.00 69 1017.3
20260902134202 28 238 1.6 3.2 0.00 0.00 0.00 70 1017.2
20260902133657 28 248 3.2 4.8 0.00 0.00 0.00 70 1017.4
20260902133156 27 205 1.6 3.2 0.00 0.00 0.00 71 1017.2
20260902132647 27 255 1.6 3.2 0.00 0.00 0.00 71 1017.2
20260902132142 27 234 3.2 4.8 0.00 0.00 0.00 71 1017.2
20260902131638 27 222 1.6 1.6 0.00 0.00 0.00 72 1017.2
20260902131133 27 201 3.2 3.2 0.00 0.00 0.00 72 1017.2
20260902130629 26 219 3.2 3.2 0.00 0.00 0.00 73 1017.1
20260902130124 26 238 1.6 1.6 0.00 0.00 0.00 75 1017.1
20260902125620 26 198 0.0 0.0 0.00 0.00 0.00 76 1017.0
20260902125115 26 221 0.0 0.0 0.00 0.00 0.00 77 1016.9
20260902124612 25 204 1.6 1.6 0.00 0.00 0.00 78 1016.9
20260902124111 25 199 3.2 3.2 0.00 0.00 0.00 78 1016.8
20260902123607 25 203 0.0 0.0 0.00 0.00 0.00 78 1017.0
20260902123102 25 176 0.0 0.0 0.00 0.00 0.00 78 1016.9
20260902122601 25 167 0.0 0.0 0.00 0.00 0.00 79 1016.7
20260902122057 25 82 0.0 0.0 0.00 0.00 0.00 78 1016.7
20260902121557 25 82 0.0 0.0 0.00 0.00 0.00 78 1016.8
20260902121052 26 82 0.0 0.0 0.00 0.00 0.00 78 1016.6
20260902120548 26 80 0.0 0.0 0.00 0.00 0.00 78 1016.7
20260902120044 26 95 0.0 0.0 0.00 0.00 0.00 77 1016.7
20260902115539 25 197 0.0 0.0 0.00 0.00 0.00 78 1016.8
20260902115035 26 202 0.0 0.0 0.00 0.00 0.00 77 1016.7
20260902114530 26 201 0.0 0.0 0.00 0.00 0.00 77 1016.6
20260902114025 26 198 1.6 3.2 0.00 0.00 0.00 77 1016.6
20260902113520 26 223 0.0 0.0 0.00 0.00 0.00 77 1016.4
20260902113016 26 226 1.6 3.2 0.00 0.00 0.00 77 1016.4
20260902112511 26 247 3.2 4.8 0.00 0.00 0.00 77 1016.3
20260902112008 26 229 1.6 1.6 0.00 0.00 0.00 77 1016.3
20260902111503 26 220 1.6 3.2 0.00 0.00 0.00 77 1016.3
20260902110959 26 248 3.2 3.2 0.00 0.00 0.00 76 1016.4
20260902110455 26 224 4.8 4.8 0.00 0.00 0.00 77 1016.2
20260902105950 26 167 4.8 6.4 0.00 0.00 0.00 77 1016.2
20260902105444 26 181 4.8 4.8 0.00 0.00 0.00 77 1016.2
20260902104939 26 206 3.2 3.2 0.00 0.00 0.00 76 1016.4
20260902104435 26 186 3.2 3.2 0.00 0.00 0.00 76 1016.4
20260902103935 26 206 1.6 1.6 0.00 0.00 0.00 76 1016.3
20260902103430 26 193 4.8 6.4 0.00 0.00 0.00 75 1016.4
20260902102925 26 186 1.6 3.2 0.00 0.00 0.00 75 1016.4
20260902102422 26 205 1.6 3.2 0.00 0.00 0.00 75 1016.5
20260902101918 26 196 3.2 3.2 0.00 0.00 0.00 75 1016.4
20260902101412 26 199 3.2 3.2 0.00 0.00 0.00 75 1016.3
20260902100912 26 213 3.2 3.2 0.00 0.00 0.00 75 1016.2
20260902100406 26 224 1.6 3.2 0.00 0.00 0.00 75 1016.3
20260902095900 26 215 3.2 4.8 0.00 0.00 0.00 75 1016.3
20260902095354 26 192 1.6 3.2 0.00 0.00 0.00 76 1016.5
20260902094849 26 201 4.8 4.8 0.00 0.00 0.00 76 1016.4
20260902094345 26 226 4.8 4.8 0.00 0.00 0.00 76 1016.5
20260902093844 26 230 4.8 4.8 0.00 0.00 0.00 77 1016.4
20260902093340 26 222 0.0 0.0 0.00 0.00 0.00 77 1016.4
20260902092838 26 208 0.0 0.0 0.00 0.00 0.00 78 1016.3
20260902092334 26 208 0.0 0.0 0.00 0.00 0.00 78 1016.5
20260902091829 26 199 1.6 1.6 0.00 0.00 0.00 78 1016.5
20260902091325 26 183 1.6 1.6 0.00 0.00 0.00 78 1016.4
20260902090821 26 183 1.6 1.6 0.00 0.00 0.00 78 1016.4
20260902090320 26 205 3.2 3.2 0.00 0.00 0.00 78 1016.4
20260902085820 26 163 4.8 4.8 0.00 0.00 0.00 78 1016.5
20260902085315 26 161 4.8 4.8 0.00 0.00 0.00 77 1016.5
20260902084810 26 150 3.2 3.2 0.00 0.00 0.00 77 1016.5
20260902084307 26 146 3.2 3.2 0.00 0.00 0.00 77 1016.4
20260902083801 26 130 0.0 0.0 0.00 0.00 0.00 77 1016.4
20260902083256 26 173 0.0 0.0 0.00 0.00 0.00 77 1016.6
20260902082751 26 164 0.0 0.0 0.00 0.00 0.00 77 1016.8
20260902082248 26 157 1.6 1.6 0.00 0.00 0.00 77 1016.7
20260902081743 26 121 1.6 3.2 0.00 0.00 0.00 76 1016.5
20260902081239 26 110 4.8 4.8 0.00 0.00 0.00 76 1016.8
20260902080734 26 132 1.6 1.6 0.00 0.00 0.00 76 1016.8
20260902080231 26 87 0.0 1.6 0.00 0.00 0.00 76 1016.7
20260902075730 26 88 3.2 3.2 0.00 0.00 0.00 75 1016.9
20260902075226 26 83 3.2 3.2 0.00 0.00 0.00 75 1016.8
20260902074726 26 86 0.0 0.0 0.00 0.00 0.00 75 1016.8
20260902074222 27 57 3.2 3.2 0.00 0.00 0.00 74 1016.8
20260902073717 27 55 1.6 3.2 0.00 0.00 0.00 74 1017.0
20260902073213 27 98 1.6 1.6 0.00 0.00 0.00 73 1016.8
20260902072709 27 120 0.0 1.6 0.00 0.00 0.00 73 1016.9
20260902072205 27 83 1.6 3.2 0.00 0.00 0.00 73 1016.9
20260902071701 27 95 4.8 4.8 0.00 0.00 0.00 73 1016.7
20260902071155 27 84 0.0 0.0 0.00 0.00 0.00 73 1016.8
20260902070652 27 80 6.4 6.4 0.00 0.00 0.00 72 1017.0
20260902070151 27 68 3.2 3.2 0.00 0.00 0.00 72 1017.0
20260902065650 27 77 1.6 1.6 0.00 0.00 0.00 72 1016.9
20260902065146 27 127 0.0 0.0 0.00 0.00 0.00 72 1017.1
20260902064641 27 52 1.6 1.6 0.00 0.00 0.00 71 1017.0
20260902064137 27 66 3.2 3.2 0.00 0.00 0.00 71 1017.0
20260902063632 27 105 0.0 1.6 0.00 0.00 0.00 71 1017.0
20260902063127 27 43 1.6 3.2 0.00 0.00 0.00 71 1017.0
20260902062626 27 50 3.2 4.8 0.00 0.00 0.00 71 1017.2
20260902062121 27 39 3.2 4.8 0.00 0.00 0.00 71 1017.0
20260902061620 28 80 1.6 3.2 0.00 0.00 0.00 70 1016.9
20260902061116 28 65 1.6 1.6 0.00 0.00 0.00 70 1016.9
20260902060613 28 83 0.0 1.6 0.00 0.00 0.00 69 1017.0
20260902060109 28 81 6.4 6.4 0.00 0.00 0.00 69 1017.0
20260902055604 28 107 3.2 3.2 0.00 0.00 0.00 69 1016.9
20260902055059 28 103 3.2 4.8 0.00 0.00 0.00 69 1017.1
20260902054554 28 85 3.2 3.2 0.00 0.00 0.00 68 1017.0
20260902054050 28 127 3.2 4.8 0.00 0.00 0.00 68 1017.0
20260902053544 28 128 0.0 0.0 0.00 0.00 0.00 67 1016.8
20260902053039 28 92 1.6 3.2 0.00 0.00 0.00 67 1016.7
20260902052533 28 74 6.4 9.7 0.00 0.00 0.00 67 1016.6
20260902052029 29 71 6.4 6.4 0.00 0.00 0.00 67 1016.7
20260902051529 29 126 3.2 3.2 0.00 0.00 0.00 66 1016.6
20260902051028 29 83 4.8 4.8 0.00 0.00 0.00 66 1016.7
20260902050523 30 119 4.8 6.4 0.00 0.00 0.00 65 1016.9
20260902050018 30 120 4.8 9.7 0.00 0.00 0.00 65 1016.7
20260902045513 30 164 6.4 9.7 0.00 0.00 0.00 64 1016.6
20260902045010 30 131 12.9 14.5 0.00 0.00 0.00 64 1016.8
20260902044504 30 107 6.4 6.4 0.00 0.00 0.00 64 1016.7
20260902044000 30 139 6.4 6.4 0.00 0.00 0.00 63 1016.8
20260902043455 30 125 6.4 6.4 0.00 0.00 0.00 63 1017.0
20260902042950 30 99 9.7 11.3 0.00 0.00 0.00 63 1017.0
20260902042449 30 99 1.6 3.2 0.00 0.00 0.00 62 1017.0
20260902041944 30 88 6.4 9.7 0.00 0.00 0.00 61 1016.9
20260902041438 30 123 3.2 4.8 0.00 0.00 0.00 62 1016.7
20260902040938 30 122 8.0 9.7 0.00 0.00 0.00 61 1016.6
20260902040428 30 113 4.8 6.4 0.00 0.00 0.00 61 1016.7
20260902035926 31 141 8.0 11.3 0.00 0.00 0.00 60 1016.6
20260902035421 31 89 6.4 9.7 0.00 0.00 0.00 60 1016.7
20260902034920 31 132 3.2 4.8 0.00 0.00 0.00 60 1016.6
20260902034415 31 143 6.4 6.4 0.00 0.00 0.00 60 1016.5
20260902033915 31 169 4.8 6.4 0.00 0.00 0.00 60 1016.5
20260902033409 31 129 3.2 3.2 0.00 0.00 0.00 59 1016.2
20260902032908 31 123 3.2 3.2 0.00 0.00 0.00 59 1016.4
20260902032403 31 163 3.2 3.2 0.00 0.00 0.00 59 1016.3
20260902031903 31 136 3.2 3.2 0.00 0.00 0.00 59 1016.2
20260902031359 31 144 6.4 6.4 0.00 0.00 0.00 58 1016.3
20260902030854 31 170 6.4 6.4 0.00 0.00 0.00 58 1016.3
20260902030348 31 123 4.8 4.8 0.00 0.00 0.00 58 1016.2
20260902025847 31 103 3.2 3.2 0.00 0.00 0.00 57 1016.1
20260902025343 31 123 6.4 11.3 0.00 0.00 0.00 57 1015.8
20260902024838 31 101 4.8 4.8 0.00 0.00 0.00 57 1015.4
20260902024334 31 103 6.4 6.4 0.00 0.00 0.00 56 1015.4
20260902023829 31 90 6.4 6.4 0.00 0.00 0.00 56 1015.6
20260902023324 31 124 3.2 4.8 0.00 0.00 0.00 56 1015.4
20260902022823 32 116 9.7 11.3 0.00 0.00 0.00 55 1015.4
20260902022318 32 116 8.0 11.3 0.00 0.00 0.00 55 1015.4
20260902021814 32 132 6.4 9.7 0.00 0.00 0.00 54 1015.3
20260902021309 32 71 6.4 9.7 0.00 0.00 0.00 54 1015.1
20260902020805 32 101 8.0 14.5 0.00 0.00 0.00 53 1015.3
20260902020301 32 95 4.8 4.8 0.00 0.00 0.00 53 1015.2
20260902015756 32 75 4.8 6.4 0.00 0.00 0.00 53 1014.9
20260902015253 32 77 6.4 6.4 0.00 0.00 0.00 52 1014.9
20260902014748 32 122 3.2 4.8 0.00 0.00 0.00 52 1014.9
20260902014244 32 61 6.4 6.4 0.00 0.00 0.00 52 1014.7
20260902013743 32 48 8.0 9.7 0.00 0.00 0.00 51 1014.6
20260902013238 32 17 3.2 6.4 0.00 0.00 0.00 51 1014.6
20260902012733 33 75 11.3 14.5 0.00 0.00 0.00 50 1014.6
20260902012230 33 97 6.4 9.7 0.00 0.00 0.00 49 1014.5
20260902011724 33 82 8.0 12.9 0.00 0.00 0.00 49 1014.6
20260902011223 33 89 6.4 9.7 0.00 0.00 0.00 48 1014.5
20260902010718 33 97 3.2 4.8 0.00 0.00 0.00 46 1014.6
20260902010214 33 135 1.6 1.6 0.00 0.00 0.00 46 1014.5
20260902005712 33 92 6.4 11.3 0.00 0.00 0.00 45 1014.4
20260902005208 33 91 4.8 6.4 0.00 0.00 0.00 45 1014.4
20260902004708 34 41 4.8 6.4 0.00 0.00 0.00 45 1014.5
20260902004202 34 68 1.6 3.2 0.00 0.00 0.00 45 1014.5
20260902003652 34 98 8.0 9.7 0.00 0.00 0.00 45 1014.6
20260902003147 35 84 9.7 12.9 0.00 0.00 0.00 45 1014.7
20260902002643 35 61 6.4 9.7 0.00 0.00 0.00 45 1014.6
20260902002142 35 64 3.2 4.8 0.00 0.00 0.00 45 1014.7
20260902001638 35 66 3.2 6.4 0.00 0.00 0.00 45 1014.4
20260902001132 35 41 4.8 4.8 0.00 0.00 0.00 45 1014.6
20260902000627 35 76 9.7 16.1 0.00 0.00 0.00 44 1014.6
20260902000122 35 46 11.3 14.5 0.00 0.00 0.00 44 1014.4
20260901235622 35 51 8.0 14.5 0.00 0.00 0.00 43 1014.5
20260901235118 35 94 8.0 11.3 0.00 0.00 0.00 40 1014.5
20260901234616 35 92 3.2 4.8 0.00 0.00 0.00 40 1014.4
20260901234112 35 65 3.2 6.4 0.00 0.00 0.00 41 1014.3
20260901233607 35 36 12.9 16.1 0.00 0.00 0.00 41 1014.4
20260901233103 35 57 6.4 11.3 0.00 0.00 0.00 41 1014.4